Location: Carrières
(48.9495°N, 2.0407°E)
Time: 14:08:32
(UTC+00:00)

CZ-2C R/B - Pass Details

Date: 28 January 2023
Orbit: 784 x 869 km, 98.3° (Epoch: 22 March)

Event Time Altitude Azimuth Distance (km) Brightness Sun altitude
Rises 17:14:42 0° 9° (N) 3,398 5.5 -5.7°
Reaches altitude 10° 17:17:07 10° 4° (N) 2,472 4.9 -6.1°
Maximum altitude 17:22:22 48° 292° (WNW) 1,108 3.8 -6.9°
Drops below altitude 10° 17:27:40 10° 220° (SW) 2,499 6.2 -7.7°
Sets 17:30:08 0° 215° (SW) 3,438 6.8 -8.1°
